#timestamp,LO_Frequency,Hit 
1506146415.8,286047004.6,N
1506146435.7,286047002.8,N
1506146455.5,286047001.1,N
1506146475.3,286047003.9,N
1506146495.1,286047005.5,N
1506146515.9,286047003.9,N
1506146535.7,286047003.5,N
1506146555.5,286047006.8,N
1506146575.4,286047003.5,N
1506146595.2,286047002.8,N
1506146615.0,286047003.5,N
1506146615.9,286047003.5,N
1506146635.8,286047004.2,N
1506146655.6,286047004.0,N
1506146675.4,286047002.1,N
1506146695.3,286047000.5,N
1506146715.1,286047001.2,N
1506146716.0,286047001.2,N
1506146735.8,286046998.3,N
1506146755.7,286046995.2,N
1506146775.5,286046998.5,N
1506146795.3,286047002.1,N
1506146815.2,286047006.1,N
1506146835.9,286047012.5,P
1506146855.7,286047014.1,N
1506146875.6,286047011.1,N
1506146895.4,286047007.7,N
1506146915.2,286047009.2,N
1506146935.1,286047003.5,N
1506146936.0,286047003.5,N
1506146955.8,286047005.5,N
1506146975.6,286047006.3,N
1506146995.4,286047003.6,N
1506147015.3,286047005.2,N
1506147035.1,286047010.5,N
1506147055.8,286047009.5,N
1506147075.7,286047003.3,N
1506147095.5,286047002.5,N
1506147115.3,286046999.7,N
1506147135.2,286047003.9,N
1506147155.9,286046999.8,N
1506147175.7,286046998.2,N
1506147195.6,286046999.0,N
1506147215.4,286046996.2,N
1506147235.2,286046995.5,N
1506147255.1,286046996.2,N
1506147256.0,286046996.2,N
1506147275.8,286046993.4,N
1506147295.6,286046996.3,N
1506147315.4,286046993.4,N
1506147335.3,286046996.3,N
1506147355.1,286046997.3,N
1506147375.8,286047000.8,N
1506147395.7,286046999.2,N
1506147415.5,286046999.6,N
1506147435.3,286046995.6,N
1506147455.2,286046993.0,N
1506147475.9,286046996.1,N
1506147495.7,286046997.0,N
1506147515.6,286046995.8,N
1506147535.4,286046993.2,N
1506147555.2,286046994.5,N
1506147575.1,286046995.8,N
1506147576.0,286046995.8,N
1506147595.8,286046995.7,N
1506147615.6,286046993.6,N
1506147635.4,286046998.0,N
1506147655.3,286047000.0,N
1506147675.1,286047002.2,N
1506147695.8,286047003.4,N
1506147715.7,286047005.6,N
1506147735.5,286047002.8,N
1506147755.3,286046997.6,N
1506147775.2,286046997.6,N
1506147795.9,286046998.8,N
1506147815.7,286046998.5,N
1506147835.6,286046998.7,N
1506147855.4,286046997.0,N
1506147875.2,286046998.4,N
1506147895.1,286046997.9,N
1506147896.0,286046997.9,N
1506147915.8,286046996.3,N
1506147935.6,286046995.4,N
1506147955.4,286046997.0,N
1506147975.3,286046998.6,N
1506147995.1,286046998.4,N
1506148015.8,286047001.9,N
1506148035.7,286047004.4,N
1506148055.5,286047004.4,N
1506148075.3,286047005.3,N
1506148095.2,286047004.7,N
1506148115.9,286047007.3,N
1506148135.7,286047002.9,N
1506148155.6,286047004.7,N
1506148175.4,286047005.8,N
1506148195.2,286047001.3,N
1506148215.1,286047003.1,N
1506148216.0,286047003.1,N
1506148235.8,286047004.7,N
1506148255.6,286047004.5,N
1506148275.5,286047005.3,N
1506148295.3,286047005.9,N
1506148315.1,286047002.9,N
1506148335.8,286047006.5,N
1506148355.7,286047003.0,N
1506148375.5,286047000.4,N
1506148395.3,286046999.9,N
1506148415.2,286047002.5,N
1506148435.9,286047003.1,N
1506148455.7,286047008.5,N
1506148475.6,286047007.8,N
1506148495.4,286047005.7,N
1506148515.2,286047003.2,N
1506148535.1,286047003.2,N
1506148536.0,286047003.2,N
1506148555.8,286047005.0,N
1506148575.6,286047002.9,N
1506148595.5,286047001.3,N
1506148615.3,286047002.3,N
1506148635.1,286047003.7,N
1506148655.8,286046998.5,N
1506148675.7,286046997.7,N
1506148695.5,286046996.1,N
1506148715.3,286046993.9,N
1506148735.2,286046996.9,N
1506148755.9,286047001.7,N
1506148775.7,286047003.6,N
1506148795.6,286047000.2,N
1506148815.4,286046998.4,N
1506148835.2,286046999.3,N
1506148855.1,286046998.6,N
1506148856.0,286046998.6,N
1506148875.8,286046999.7,N
1506148895.6,286047005.4,N
1506148915.5,286047002.6,N
1506148935.3,286047000.5,N
1506148955.1,286046998.1,N
1506148975.8,286047001.0,N
1506148995.7,286046999.6,N
1506149015.5,286046997.8,N
1506149035.3,286047000.1,N
1506149055.2,286047004.4,N
1506149075.0,286047005.8,N
1506149075.9,286047005.8,N
1506149095.7,286047001.1,N
1506149115.6,286046995.6,N
1506149135.4,286046998.7,N
1506149155.2,286047002.7,N
1506149175.1,286046999.5,N
1506149176.0,286046999.5,N
1506149195.8,286046995.5,N
1506149215.6,286046999.5,N
1506149235.5,286046996.9,N
1506149255.3,286046997.5,N
1506149275.1,286046997.9,N
1506149295.9,286046994.1,N
1506149315.7,286046993.4,N
1506149335.5,286046996.9,N
1506149355.3,286047001.8,N
1506149375.2,286047002.7,N
1506149395.0,286047004.0,N
1506149395.9,286047004.0,N
1506149415.7,286047001.0,N
1506149435.6,286047000.2,N
1506149455.4,286047001.7,N
1506149475.2,286047005.7,N
1506149495.1,286047005.4,N
1506149496.0,286047005.4,N
1506149515.8,286046999.9,N
1506149535.6,286047000.1,N
1506149555.5,286046999.7,N
1506149575.3,286047001.2,N
1506149595.1,286046997.7,N
1506149615.9,286046995.2,N
1506149635.7,286046999.4,N
1506149655.5,286047000.0,N
1506149675.4,286047005.5,N
1506149695.2,286047005.7,N
1506149715.0,286047005.6,N
1506149715.9,286047005.6,N
1506149735.8,286047004.3,N
1506149755.6,286047000.3,N
1506149775.4,286046998.0,N
1506149795.2,286046998.4,N
1506149815.1,286047002.2,N
1506149816.0,286047002.2,N
1506149835.8,286046998.3,N
1506149855.6,286047001.6,N
1506149875.5,286047000.6,N
1506149895.3,286046997.2,N
1506149915.1,286046999.1,N
1506149935.9,286047000.3,N
1506149955.7,286046999.8,N
1506149975.5,286047002.2,N
1506149995.4,286046998.4,N
